Weather History for KCHA - September, 2014

Change the Weather History Date:

Monday, September 15, 2014

  Actual Average Record
Temperature  
Mean Temperature 73 °F 73 °F  
Max Temperature 79 °F 84 °F 97 °F (1991)
Min Temperature 67 °F 62 °F 46 °F (1985)
Degree Days  
Heating Degree Days 0 0  
Month to date heating degree days 0 0  
Since 1 July heating degree days 0 0  
Cooling Degree Days 8 8  
Month to date cooling degree days 214 153  
Year to date cooling degree days 1715 1603  
Growing Degree Days 22 (Base 50)    
Moisture  
Dew Point 67 °F    
Average Humidity 81    
Maximum Humidity 93    
Minimum Humidity 69    
Precipitation  
Precipitation 0.78 in 0.14 in 2.06 in (1977)
Month to date precipitation 2.31 1.96  
Year to date precipitation 30.96 37.22  
Snow  
Snow 0.00 in 0.00 in - ()
Month to date snowfall 0.0 0.0  
Since 1 July snowfall 0.0 0.0  
Since 1 September snowfall 0.0 0.0  
Snow Depth 0.00 in    
Sea Level Pressure  
Sea Level Pressure 30.16 in    
Wind  
Wind Speed 4 mph (SSE)    
Max Wind Speed 13 mph    
Max Gust Speed 15 mph    
Visibility 6 miles    
Events Rain , Thunderstorm    
T = Trace of Precipitation, MM = Missing Value Source: NWS Daily Summary

Daily Weather History Graph

Daily Weather History Graph

Search for Another Location

Airport or City:

Trip Planner

Search our weather history database for the weather conditions in past years. The results will help you decide how hot, cold, wet, or windy it might be!

Date:

Astronomy

Sep. 15, 2014 Rise Set
Actual Time 7:23 AM EDT 7:47 PM EDT
Civil Twilight 6:58 AM EDT 8:13 PM EDT
Nautical Twilight 6:28 AM EDT 8:42 PM EDT
Astronomical Twilight 5:58 AM EDT 9:13 PM EDT
Moon No Moon Rise 2:09 PM EDT (9/15)
Length of Visible Light 13h 14m
Length of Day
12h 24m
Waning Gibbous, 54% of the Moon is Illuminated
Sep 15
Waning Gibbous
Sep 15
Last Quarter
Sep 24
New
Oct 1
First Quarter
Oct 8
Full

Hourly Weather History & Observations

Time (EDT) Temp. Dew Point Humidity Pressure Visibility Wind Dir Wind Speed Gust Speed Precip Events Conditions
12:53 AM 70.0 °F 64.9 °F 84% 30.18 in 10.0 mi SSE 5.8 mph - N/A   Clear
1:53 AM 69.1 °F 64.9 °F 87% 30.18 in 10.0 mi SE 3.5 mph - N/A   Partly Cloudy
2:48 AM 69.8 °F 64.4 °F 83% 30.19 in 10.0 mi SSE 3.5 mph - N/A   Scattered Clouds
2:53 AM 69.1 °F 64.0 °F 84% 30.18 in 10.0 mi SSE 4.6 mph - N/A   Mostly Cloudy
3:53 AM 68.0 °F 64.0 °F 87% 30.17 in 10.0 mi SSE 6.9 mph - N/A   Overcast
4:53 AM 68.0 °F 64.0 °F 87% 30.17 in 10.0 mi South 5.8 mph - N/A   Overcast
5:53 AM 66.9 °F 64.0 °F 90% 30.18 in 7.0 mi South 6.9 mph - N/A   Overcast
6:53 AM 68.0 °F 64.0 °F 87% 30.18 in 7.0 mi South 3.5 mph - N/A   Overcast
7:21 AM 66.9 °F 64.0 °F 90% 30.21 in 2.5 mi Calm Calm - 0.00 in   Light Drizzle
7:53 AM 66.9 °F 64.9 °F 93% 30.20 in 2.5 mi Calm Calm - 0.00 in   Overcast
8:53 AM 68.0 °F 64.9 °F 90% 30.19 in 2.5 mi Calm Calm - N/A   Overcast
9:08 AM 68.0 °F 64.9 °F 90% 30.21 in 2.0 mi Calm Calm - N/A   Overcast
9:53 AM 69.1 °F 64.9 °F 87% 30.20 in 2.5 mi Calm Calm - N/A   Overcast
10:26 AM 69.1 °F 64.9 °F 87% 30.21 in 3.0 mi Calm Calm - N/A   Overcast
10:53 AM 70.0 °F 64.9 °F 84% 30.19 in 3.0 mi SSW 3.5 mph - N/A   Overcast
11:53 AM 70.0 °F 64.9 °F 84% 30.19 in 5.0 mi Calm Calm - N/A   Overcast
12:43 PM 72.0 °F 66.0 °F 81% 30.19 in 5.0 mi SSW 4.6 mph - N/A   Overcast
12:53 PM 72.0 °F 64.9 °F 78% 30.17 in 5.0 mi Variable 4.6 mph - N/A   Overcast
1:53 PM 73.9 °F 66.0 °F 76% 30.16 in 5.0 mi SW 5.8 mph - N/A   Haze
2:53 PM 75.0 °F 66.0 °F 73% 30.14 in 5.0 mi SSW 6.9 mph - N/A   Haze
3:53 PM 77.0 °F 66.9 °F 71% 30.12 in 10.0 mi South 4.6 mph - N/A   Mostly Cloudy
4:05 PM 77.0 °F 66.9 °F 71% 30.13 in 10.0 mi Calm Calm - N/A   Mostly Cloudy
4:53 PM 77.0 °F 68.0 °F 74% 30.10 in 10.0 mi South 4.6 mph - N/A   Mostly Cloudy
5:53 PM 79.0 °F 68.0 °F 69% 30.08 in 10.0 mi Variable 3.5 mph - N/A   Mostly Cloudy
6:53 PM 78.1 °F 69.1 °F 74% 30.10 in 10.0 mi SE 4.6 mph - N/A   Mostly Cloudy
7:03 PM 78.1 °F 69.1 °F 74% 30.12 in 10.0 mi SE 3.5 mph - N/A   Mostly Cloudy
7:53 PM 75.9 °F 66.9 °F 74% 30.11 in 10.0 mi ENE 4.6 mph - N/A   Overcast
8:53 PM 73.9 °F 69.1 °F 85% 30.11 in 10.0 mi NNW 5.8 mph - 0.00 in   Overcast
9:50 PM 71.6 °F 69.8 °F 94% 30.14 in 1.2 mi NNE 4.6 mph - 0.16 in Rain Heavy Rain
9:53 PM 72.0 °F 69.1 °F 91% 30.12 in 1.2 mi NNE 4.6 mph - 0.19 in Rain Heavy Rain
9:59 PM 72.0 °F 70.0 °F 93% 30.14 in 1.2 mi North 5.8 mph - 0.09 in Rain , Thunderstorm Heavy Thunderstorms and Rain
10:07 PM 72.0 °F 70.0 °F 93% 30.14 in 1.2 mi NNE 3.5 mph - 0.21 in Rain , Thunderstorm Heavy Thunderstorms and Rain
10:14 PM 72.0 °F 70.0 °F 93% 30.14 in 0.8 mi Calm Calm - 0.38 in Rain , Thunderstorm Heavy Thunderstorms and Rain
10:27 PM 72.0 °F 70.0 °F 93% 30.13 in 1.5 mi ESE 5.8 mph - 0.58 in Rain , Thunderstorm Thunderstorms and Rain
10:43 PM 71.1 °F 69.1 °F 93% 30.12 in 6.0 mi SSE 3.5 mph - 0.59 in   Overcast
10:53 PM 72.0 °F 69.1 °F 91% 30.11 in 6.0 mi Calm Calm - 0.59 in   Overcast
11:53 PM 72.0 °F 69.1 °F 91% 30.13 in 6.0 mi Calm Calm - N/A   Mostly Cloudy